Regional Weather Roundup
Issued by NWS Kansas City/Pleasant Hill, MO

Home | Current Version | Previous Version | Text Only | Print | Product List | Glossary On
Versions: 1 2 3 4 5 6 7 8 9 10 11 12 13 14 15 16 17 18 19 20 21 22 23 24 25 26 27 28 29 30 31 32 33 34 35 36 37 38 39 40 41 42 43 44 45 46 47 48 49 50
000
ASUS43 KEAX 110211
RWREAX

WEATHER ROUNDUP FOR EASTERN KANSAS AND NORTHWEST MISSOURI
NATIONAL WEATHER SERVICE KANSAS CITY/PLEASANT HILL MO
900 PM CDT THU JUL 10 2014

KSZ040-057-103>105-MOZ028-029-037-043-110300-
...KANSAS CITY METROPOLITAN AREA...

CITY           SKY/WX    TMP DP  RH WIND       PRES   REMARKS
K.C. INTL      PTCLDY    77  65  66 SE10      30.04R
K.C. DOWNTOWN  CLEAR     80  66  62 SE9       30.03R
LEES SUMMIT    CLEAR     76  66  71 SE5       30.05S
OLATHE - IXD   CLEAR     76  65  68 SE8       30.05R
OLATHE - OJC   CLEAR     75  65  70 SE7       30.04R
LAWRENCE       CLEAR     77  67  71 SE9       30.02R

$$

MOZ001>008-011>017-020>025-030>033-038>040-044>046-053-054-110300-
...NORTHERN AND CENTRAL MISSOURI...

CITY           SKY/WX    TMP DP  RH WIND       PRES   REMARKS
ST. JOSEPH     CLEAR     77  66  68 SE10      30.02R
MOSBY          CLEAR     75  66  73 CALM      30.04S
WHITEMAN AFB   CLEAR     73  61  66 SE5       30.05S
CLINTON        CLEAR     75  70  83 CALM      30.06S
SEDALIA        CLEAR     74  67  78 E5        30.08S
WARSAW         NOT AVBL
MARSHALL         N/A     75  66  73 E5        30.08S HAZE
CHILLICOTHE      N/A     75  61  61 SE3       30.07S
MOBERLY        CLEAR     72  61  68 E6        30.10R
KIRKSVILLE     CLEAR     70  61  73 SE6       30.10S

$$

MOZ041-047>049-056>058-063>065-088>090-097-110300-
...EASTERN AND SOUTHERN MISSOURI...

CITY           SKY/WX    TMP DP  RH WIND       PRES   REMARKS
ST. LOUIS INTL PTCLDY    75  56  51 E7        30.11R
SPIRIT OF STL  PTCLDY    69  62  78 CALM      30.09R
COLUMBIA       CLEAR     73  62  68 E6        30.09S
JEFFERSON CITY CLEAR     73  63  70 E5        30.08R
MEXICO         CLEAR     70  70 100 SE3       30.10S
HANNIBAL       CLEAR     72  54  53 CALM      30.11R
ROLLA          CLEAR     70  62  76 E6        30.10R
LEBANON        CLEAR     72  63  73 SE3       30.11R
OSAGE BEACH    MOCLDY    73  64  73 S6        30.09R
SPRINGFIELD    CLEAR     71  64  78 SE8       30.08R
BRANSON        MOCLDY    72  68  88 E5        30.10S
NEVADA         CLEAR     73  68  83 E3        30.06S
JOPLIN         CLEAR     72  66  81 S6        30.05R
WEST PLAINS    PTCLDY    72  66  81 E3        30.11S
PIEDMONT       MOCLDY    73  70  88 CALM      30.10S
MALDEN         CLOUDY    79  68  69 NE3       30.09S

$$

IAZ060-094-KSZ022-034>040-054-083-096-NEZ052-066-093-110300-
...KANSAS...SOUTHEAST NEBRASKA AND IOWA...

CITY           SKY/WX    TMP DP  RH WIND       PRES   REMARKS
TOPEKA         CLEAR     79  66  64 SE9       30.00S
MANHATTAN      CLEAR     80  63  55 SE8       29.97R
EMPORIA        CLEAR     75  64  68 SE10      30.01R
CHANUTE        CLEAR     74  66  76 S6        30.03R
WICHITA        PTCLDY    75  67  76 SE12      29.98R
OMAHA          PTCLDY    78  65  63 SE16      29.98R
LINCOLN        CLEAR     81  63  54 SE13      29.97R
FALLS CITY     CLEAR     75  66  73 SE8       29.99S
LAMONI         PTCLDY    72  59  63 SE6       30.07R
DES MOINES     MOCLDY    75  59  57 SE8       30.06R

$$



USA.gov is the U.S. government's official web portal to all federal, state and local government web resources and services.